Location: Newark
(54.3386°S, 169.8415°W)
Time: 12:54:22
(UTC+00:00)

Transit 2A Rocket - Pass Details

Date: 23 October 2019
Orbit: 594 x 909 km, 66.7° (Epoch: 16 November)

Event Time Altitude Azimuth Distance (km) Brightness Sun altitude
Rises 02:13:19 0° 22° (NNE) 3,217 8.3 33.1°
Reaches altitude 10° 02:16:42 10° 45° (NE) 2,370 7.5 32.7°
Maximum altitude 02:19:35 15° 77° (ENE) 2,119 7.0 32.3°
Drops below altitude 10° 02:22:36 10° 109° (ESE) 2,491 7.2 31.9°
Sets 02:26:17 0° 131° (SE) 3,491 7.9 31.4°
